STARLINK-11546, 62835

Orbit data source: Space-Track

STARLINK-11546, 62835 is a payload satellite owned by SpaceX/Seattle (US) in LEO that was launched on Mon, 27 Jan 2025 UTC via an FALCON 9 launch vehicle from the Air Force Eastern Test Range (AFETR). Payload-class satellites include a variety of spacecraft equipped with specific instruments for various scientific and technological missions. These include communications satellites like Starlink; space stations such as the ISS; scientific satellites like the Hubble; Earth observation satellites from companies like Planet Labs, Umbra, and HawkEye 360; GPS; miniature CubeSats for education and research; and military/defense satellites.

Loading next visibility...
Identifier
62835, 2025-019G
Orbit
LEO
Country
Flag of USUS
Related business
Manufacturer
SpaceX/Seattle
Mission
Operational Commercial Communications
Bus & Motor
STARLINK V2MD, Unknown motor
Mass
960 kg wet, ~910 kg dry
Launch date (UTC)
2025-01-27 (1 year ago)
Launch vehicle
FALCON 9
Launch site
Air Force Eastern Test Range (AFETR)
Object type
Payload
Rocket body
Debris
Shape & HBR
Box + 2 Pan, 18.1 m
Radar Cross Section
36.964 m², Large (>1 m²)

Expand to show TLE details & history
Last TLE update: 16 hours ago

TLE from 16 hours ago
0 STARLINK-11546
1 62835U 25019G   26037.59009619  .00256848  00000-0  19451-2 0  9993
2 62835  42.9987 133.9740 0001732 298.2776  61.7917 15.70825819 58983
Epoch: 2026-02-06T14:09Z
TLE epoch observation values (Epoch: 2026-02-06T14:09:44.310Z)
Latitude
-0.00001°
Longitude
144.81357°
Altitude
355.755 km
Speed
7.698 km/s
True Right ascension
08h 55m 53s
True Declination
0° 00' 00"
Sunlit
Object was in full shadow at epoch
Visualization orbit readout
Latitude
Unknown
Longitude
Unknown
Altitude
Unknown
Speed
Unknown
Apparent Right ascension
Unknown
Apparent Declination
Unknown
Sunlit
N/A
Visualization observer readout
Local Sidereal Time
07:59:59
Azimuth
Unknown
Elevation
Unknown
Doppler factor
Unknown
Orbital elements
Apogee altitude
359.684 km
Perigee altitude
357.351 km
Semi-major axis
6,736.654 km
Eccentricity
0.00017
Inclination
42.9987°
RAAN
133.974°
Arg. of periapsis
298.2776°
True anomaly
61.80919°
Mean anomaly
61.7917°
Eccentric anomaly
61.80045°
Mean motion
3.92534 °/min
Orbital period
91.71 mins
BSTAR
0.0019451
Loading maneuver chart data...
Computing Atmospheric mass density...
Loading historical data...
Loading historical data...
Loading historical data...
Loading historical data...
Loading historical data...
Loading historical data...
Loading historical data...

Documentation

Showing up to 5 results
|